Merida, Mexico

10:03 PM CST on March 28, 2017 (GMT -0600)
Lic Manuel Crecencio Rejon

Weather History for MMMD - March, 2013

Change the Weather History Date:

Thursday, March 14, 2013

  Actual Average Record
Temperature  
Mean Temperature 74 °F -  
Max Temperature 82 °F 92 °F 107 °F (2005)
Min Temperature 67 °F 67 °F 62 °F (1998)
Cooling Degree Days 10    
Growing Degree Days 24 (Base 50)    
Moisture  
Dew Point 56 °F    
Average Humidity 54    
Maximum Humidity 68    
Minimum Humidity 37    
Precipitation  
Precipitation 0.00 in - - ()
Sea Level Pressure  
Sea Level Pressure 30.19 in    
Wind  
Wind Speed 7 mph ()    
Max Wind Speed 21 mph    
Max Gust Speed 24 mph    
Visibility 6.5 miles    
Events      
Averages and records for this station are not official NWS values.
T = Trace of Precipitation, MM = Missing Value Source: Averaged Metar Reports

Daily Weather History Graph

Daily Weather History Graph

Search for Another Location

Airport or City:

Trip Planner

Search our weather history database for the weather conditions in past years. The results will help you decide how hot, cold, wet, or windy it might be!

Date:

Astronomy

Mar. 14, 2013 Rise Set
Actual Time 6:07 AM CST 6:07 PM CST
Civil Twilight 5:45 AM CST 6:29 PM CST
Nautical Twilight 5:19 AM CST 6:55 PM CST
Astronomical Twilight 4:54 AM CST 7:21 PM CST
Moon 7:48 AM CST (3/14) 8:53 PM CST (3/14)
Length of Visible Light 12h 44m
Length of Day
12h 00m
Waxing Crescent, 9% of the Moon is Illuminated
Mar 14
Waxing Crescent
Mar 19
First Quarter
Mar 27
Full
Apr 2
Last Quarter
Apr 10
New

Hourly Weather History & Observations

Time (CST) Temp. Heat Index Dew Point Humidity Pressure Visibility Wind Dir Wind Speed Gust Speed Precip Events Conditions
12:46 AM 69.8 °F - 57.2 °F 64% 30.18 in 7.0 mi NNE 6.9 mph - N/A   Clear
2:08 AM 68.0 °F - 55.4 °F 64% 30.16 in 7.0 mi NE 3.5 mph - N/A   Clear
2:49 AM 68.0 °F - 55.4 °F 64% 30.19 in 7.0 mi NE 4.6 mph - N/A   Clear
3:56 AM 66.2 °F - 55.4 °F 68% 30.17 in 7.0 mi Calm Calm - N/A   Clear
4:52 AM 66.2 °F - 55.4 °F 68% 30.17 in 7.0 mi Calm Calm - N/A   Clear
5:46 AM 66.2 °F - 55.4 °F 68% 30.19 in 6.0 mi Calm Calm - N/A   Mostly Cloudy
5:50 AM 68 °F - 58 °F 63% 30.19 in 3 mi NNE 6.7 mph - -   Partly Cloudy
6:46 AM 68.0 °F - 57.2 °F 68% 30.20 in 6.0 mi Calm Calm - N/A   Mostly Cloudy
7:45 AM 71.6 °F - 57.2 °F 60% 30.22 in 6.0 mi NNE 4.6 mph - N/A   Mostly Cloudy
8:49 AM 75.2 °F - 55.4 °F 50% 30.23 in 7.0 mi NE 12.7 mph - N/A   Mostly Cloudy
9:50 AM 78.8 °F - 51.8 °F 39% 30.24 in 7.0 mi NE 19.6 mph - N/A   Overcast
10:44 AM 77.0 °F - 53.6 °F 44% 30.24 in 7.0 mi ENE 8.1 mph 19.6 mph N/A   Overcast
11:48 AM 78.8 °F - 51.8 °F 39% 30.22 in 7.0 mi ENE 20.7 mph - N/A   Overcast
11:50 AM 80 °F - 60 °F 40% 30.22 in 6 mi NNE 13.4 mph - -   Partly Cloudy
12:45 PM 80.6 °F - 51.8 °F 37% 30.18 in 7.0 mi NNE 8.1 mph 19.6 mph N/A   Overcast
1:43 PM 80.6 °F 80.5 °F 55.4 °F 42% 30.17 in 7.0 mi NNE 11.5 mph 24.2 mph N/A   Mostly Cloudy
2:47 PM 78.8 °F - 53.6 °F 42% 30.17 in 7.0 mi NE 17.3 mph - N/A   Mostly Cloudy
2:50 PM 79 °F - 61 °F 44% 30.16 in 6 mi NNE 13.4 mph - -   Partly Cloudy
3:50 PM 77.0 °F - 53.6 °F 44% 30.14 in 7.0 mi NNE 11.5 mph 24.2 mph N/A   Mostly Cloudy
4:46 PM 73.4 °F - 55.4 °F 53% 30.16 in 7.0 mi NNE 11.5 mph 23.0 mph N/A   Mostly Cloudy
5:49 PM 73.4 °F - 55.4 °F 53% 30.19 in 7.0 mi NNE 9.2 mph 20.7 mph N/A   Mostly Cloudy
5:50 PM 74 °F - 60 °F 52% 30.18 in 6 mi NNE 13.4 mph - -   Partly Cloudy
6:46 PM 71.6 °F - 55.4 °F 57% 30.18 in 7.0 mi NNE 5.8 mph - N/A   Mostly Cloudy
7:49 PM 71.6 °F - 55.4 °F 57% 30.20 in 7.0 mi NE 11.5 mph - N/A   Mostly Cloudy
8:48 PM 69.8 °F - 55.4 °F 60% 30.22 in 7.0 mi NE 11.5 mph - N/A   Mostly Cloudy
8:50 PM 71 °F - 60 °F 59% 30.22 in 3 mi ENE 11.2 mph - -   Scattered Clouds
9:46 PM 69.8 °F - 55.4 °F 60% 30.23 in 7.0 mi NE 5.8 mph - N/A   Scattered Clouds
10:44 PM 68.0 °F - 53.6 °F 60% 30.22 in 7.0 mi East 6.9 mph - N/A   Mostly Cloudy
11:43 PM 68.0 °F - 53.6 °F 60% 30.21 in 7.0 mi East 6.9 mph - N/A   Clear